This is the latest recevied weather packets stored in our database for station/object N3EDS. If no packets are shown the sender has not sent any weather packets the latest 10 day(s).
| Time | Temp. | Humidity | Pressure | Rain* | Wind** | Luminosity | Snow |
|---|---|---|---|---|---|---|---|
| 1777852563 | 9.44° C | 49% | 1014.7 hPa | 0 mm | - | 8 W/m² | - |
| 1777852259 | 9.44° C | 52% | 1014.9 hPa | 0 mm | - | 11 W/m² | - |
| 1777851957 | 10° C | 50% | 1014.6 hPa | 0 mm | - | 14 W/m² | - |
| 1777851655 | 10° C | 49% | 1014.7 hPa | 0 mm | - | 19 W/m² | - |
| 1777851351 | 10° C | 48% | 1014.8 hPa | 0 mm | - | 20 W/m² | - |
| 1777851047 | 10° C | 48% | 1014.8 hPa | 0 mm | - | 23 W/m² | - |
| 1777850744 | 10.56° C | 49% | 1014.7 hPa | 0 mm | - | 25 W/m² | - |
| 1777850442 | 10.56° C | 47% | 1014.8 hPa | 0 mm | - | 32 W/m² | - |
| 1777850140 | 10.56° C | 48% | 1014.8 hPa | 0 mm | - | 38 W/m² | - |
| 1777849836 | 10.56° C | 46% | 1014.7 hPa | 0 mm | - | 39 W/m² | - |
| 1777849533 | 10.56° C | 46% | 1014.8 hPa | 0 mm | - | 46 W/m² | - |
| 1777849230 | 10.56° C | 48% | 1014.8 hPa | 0 mm | - | 49 W/m² | - |
| 1777848927 | 10.56° C | 46% | 1014.8 hPa | 0 mm | - | 48 W/m² | - |
| 1777848621 | 10.56° C | 45% | 1014.7 hPa | 0 mm | - | 53 W/m² | - |
| 1777848319 | 11.11° C | 43% | 1014.9 hPa | 0 mm | - | 59 W/m² | - |
| 1777848012 | 11.11° C | 45% | 1014.7 hPa | 0 mm | - | 56 W/m² | - |
| 1777847710 | 11.11° C | 45% | 1014.7 hPa | 0 mm | - | 60 W/m² | - |
| 1777847405 | 11.11° C | 43% | 1014.9 hPa | 0 mm | - | 60 W/m² | - |
| 1777847103 | 11.11° C | 43% | 1014.8 hPa | 0 mm | - | 57 W/m² | - |
| 1777846801 | 11.67° C | 44% | 1014.7 hPa | 0 mm | - | 64 W/m² | - |
| 1777846498 | 11.67° C | 43% | 1014.9 hPa | 0 mm | - | 57 W/m² | - |
| 1777846190 | 11.11° C | 44% | 1014.6 hPa | 0 mm | - | 63 W/m² | - |
| 1777845886 | 11.11° C | 44% | 1014.7 hPa | 0 mm | - | 116 W/m² | - |
| 1777845583 | 11.67° C | 44% | 1014.8 hPa | 0 mm | - | 58 W/m² | - |
| 1777845280 | 11.67° C | 46% | 1014.7 hPa | 0 mm | - | 79 W/m² | - |
* Rain latest hour (hover to see other rain measurements)
** Current wind speed in m/s (hover to see current wind gust speed)